TimeCDT,TemperatureF,Dew PointF,Humidity,Sea Level PressureIn,VisibilityMPH,Wind Direction,Wind SpeedMPH,Gust SpeedMPH,PrecipitationIn,Events,Conditions,WindDirDegrees,DateUTC
12:53 AM,64.0,57.0,78,29.93,9.0,SE,3.5,-,N/A,,Clear,130,2012-10-20 05:53:00
1:53 AM,64.0,57.9,80,29.92,9.0,East,3.5,-,N/A,,Clear,100,2012-10-20 06:53:00
2:53 AM,63.0,57.9,84,29.92,9.0,ESE,3.5,-,N/A,,Clear,110,2012-10-20 07:53:00
3:53 AM,64.0,59.0,84,29.92,9.0,East,3.5,-,N/A,,Clear,100,2012-10-20 08:53:00
4:53 AM,64.9,60.1,84,29.91,8.0,East,3.5,-,N/A,,Mostly Cloudy,100,2012-10-20 09:53:00
5:53 AM,68.0,63.0,84,29.91,9.0,SE,4.6,-,N/A,,Overcast,140,2012-10-20 10:53:00
6:53 AM,70.0,64.0,81,29.91,9.0,SE,4.6,-,N/A,,Mostly Cloudy,130,2012-10-20 11:53:00
7:53 AM,73.0,66.9,81,29.93,7.0,SE,5.8,-,N/A,,Mostly Cloudy,130,2012-10-20 12:53:00
8:53 AM,78.1,70.0,76,29.94,9.0,SE,8.1,-,N/A,,Clear,140,2012-10-20 13:53:00
9:53 AM,82.0,69.1,65,29.95,10.0,SSE,12.7,-,N/A,,Mostly Cloudy,160,2012-10-20 14:53:00
10:53 AM,84.0,69.1,61,29.95,10.0,South,13.8,20.7,N/A,,Mostly Cloudy,170,2012-10-20 15:53:00
11:53 AM,84.9,70.0,61,29.94,10.0,South,15.0,-,N/A,,Partly Cloudy,170,2012-10-20 16:53:00
12:53 PM,84.9,70.0,61,29.92,10.0,SSE,20.7,24.2,N/A,,Partly Cloudy,160,2012-10-20 17:53:00
1:53 PM,87.1,72.0,61,29.90,10.0,South,17.3,-,N/A,,Mostly Cloudy,170,2012-10-20 18:53:00
2:53 PM,86.0,72.0,63,29.87,10.0,SSE,16.1,-,N/A,,Mostly Cloudy,160,2012-10-20 19:53:00
3:53 PM,84.9,72.0,65,29.86,10.0,SSE,18.4,-,N/A,,Partly Cloudy,150,2012-10-20 20:53:00
4:53 PM,84.0,72.0,67,29.85,10.0,SSE,19.6,25.3,N/A,,Scattered Clouds,150,2012-10-20 21:53:00
5:53 PM,82.9,73.0,72,29.85,10.0,SSE,15.0,-,N/A,,Clear,150,2012-10-20 22:53:00
6:53 PM,80.1,73.0,79,29.85,8.0,SSE,11.5,-,N/A,,Clear,150,2012-10-20 23:53:00
7:53 PM,79.0,73.0,82,29.87,9.0,SSE,10.4,-,N/A,,Clear,150,2012-10-21 00:53:00
8:53 PM,79.0,73.0,82,29.88,9.0,SSE,11.5,-,N/A,,Clear,150,2012-10-21 01:53:00
9:53 PM,79.0,73.0,82,29.89,9.0,SSE,12.7,-,N/A,,Clear,150,2012-10-21 02:53:00
11:53 PM,79.0,73.0,82,29.89,8.0,SSE,11.5,-,N/A,,Clear,160,2012-10-21 04:53:00